Weather History for KTSP - June, 2013

Change the Weather History Date:

Friday, June 7, 2013

  Actual Average Record
Temperature  
Mean Temperature 73 °F -  
Max Temperature 91 °F 75 °F 91 °F (2013)
Min Temperature 55 °F 51 °F 39 °F (2012)
Cooling Degree Days 8    
Growing Degree Days 23 (Base 50)    
Moisture  
Dew Point 51 °F    
Average Humidity 46    
Maximum Humidity 77    
Minimum Humidity 24    
Precipitation  
Precipitation 0.00 in - - ()
Sea Level Pressure  
Sea Level Pressure 29.98 in    
Wind  
Wind Speed 7 mph (WNW)    
Max Wind Speed 18 mph    
Max Gust Speed 26 mph    
Visibility 10 miles    
Events      
Averages and records for this station are not official NWS values.
T = Trace of Precipitation, MM = Missing Value Source: NWS Daily Summary

Daily Weather History Graph

Daily Weather History Graph

Search for Another Location

Airport or City:

Trip Planner

Search our weather history database for the weather conditions in past years. The results will help you decide how hot, cold, wet, or windy it might be!

Date:

Astronomy

Jun. 07, 2013 Rise Set
Actual Time 5:39 AM PDT 8:06 PM PDT
Civil Twilight 5:09 AM PDT 8:35 PM PDT
Nautical Twilight 4:33 AM PDT 9:12 PM PDT
Astronomical Twilight 3:53 AM PDT 9:52 PM PDT
Moon 5:02 AM PDT (6/7) 7:26 PM PDT (6/7)
Length of Visible Light 15h 26m
Length of Day
14h 27m
Waning Crescent, 1% of the Moon is Illuminated
Jun 7
Waning Crescent
Jun 8
New
Jun 16
First Quarter
Jun 23
Full
Jun 29
Last Quarter

Hourly Weather History & Observations

Time (PDT) Temp. Heat Index Dew Point Humidity Pressure Visibility Wind Dir Wind Speed Gust Speed Precip Events Conditions
12:15 AM 64.4 °F - 51.8 °F 64% 30.03 in 10.0 mi West 5.8 mph - N/A   Clear
12:35 AM 64.4 °F - 51.8 °F 64% 30.03 in 10.0 mi West 5.8 mph - N/A   Clear
12:55 AM 64.4 °F - 50.0 °F 59% 30.03 in 10.0 mi WNW 3.5 mph - N/A   Clear
1:15 AM 64.4 °F - 50.0 °F 59% 30.03 in 10.0 mi WSW 5.8 mph - N/A   Clear
1:35 AM 64.4 °F - 51.8 °F 64% 30.03 in 10.0 mi West 5.8 mph - N/A   Clear
2:55 AM 62.6 °F - 48.2 °F 59% 30.00 in 10.0 mi West 5.8 mph - N/A   Clear
3:15 AM 62.6 °F - 48.2 °F 59% 30.01 in 10.0 mi West 4.6 mph - N/A   Clear
3:35 AM 62.6 °F - 48.2 °F 59% 30.00 in 10.0 mi West 5.8 mph - N/A   Clear
3:55 AM 60.8 °F - 48.2 °F 63% 30.00 in 10.0 mi NW 3.5 mph - N/A   Clear
4:15 AM 57.2 °F - 48.2 °F 72% 30.00 in 10.0 mi Calm Calm - N/A   Clear
4:35 AM 59.0 °F - 48.2 °F 67% 30.00 in 10.0 mi Calm Calm - N/A   Clear
4:55 AM 59.0 °F - 48.2 °F 67% 30.00 in 10.0 mi Calm Calm - N/A   Clear
5:15 AM 57.2 °F - 48.2 °F 72% 30.00 in 10.0 mi Calm Calm - N/A   Clear
5:35 AM 57.2 °F - 48.2 °F 72% 30.01 in 10.0 mi Calm Calm - N/A   Clear
5:55 AM 55.4 °F - 48.2 °F 77% 30.00 in 7.0 mi East 3.5 mph - N/A   Clear
6:15 AM 57.2 °F - 48.2 °F 72% 30.01 in 7.0 mi Calm Calm - N/A   Clear
6:35 AM 59.0 °F - 48.2 °F 67% 30.01 in 9.0 mi Calm Calm - N/A   Clear
6:55 AM 62.6 °F - 50.0 °F 63% 30.00 in 9.0 mi Calm Calm - N/A   Clear
7:15 AM 64.4 °F - 50.0 °F 59% 30.00 in 8.0 mi Calm Calm - N/A   Clear
7:35 AM 68.0 °F - 50.0 °F 52% 30.00 in 10.0 mi Calm Calm - N/A   Clear
7:55 AM 71.6 °F - 50.0 °F 46% 30.00 in 9.0 mi Calm Calm - N/A   Clear
8:15 AM 73.4 °F - 51.8 °F 47% 30.00 in 8.0 mi NW 8.1 mph - N/A   Clear
8:35 AM 75.2 °F - 50.0 °F 41% 30.00 in 9.0 mi WNW 4.6 mph - N/A   Clear
8:55 AM 77.0 °F - 50.0 °F 39% 30.00 in 9.0 mi NW 6.9 mph - N/A   Clear
9:15 AM 78.8 °F - 50.0 °F 36% 30.00 in 10.0 mi NW 6.9 mph - N/A   Clear
9:35 AM 80.6 °F - 50.0 °F 34% 30.00 in 10.0 mi NW 8.1 mph - N/A   Clear
9:55 AM 82.4 °F - 50.0 °F 32% 30.00 in 10.0 mi WNW 8.1 mph - N/A   Clear
10:15 AM 82.4 °F - 48.2 °F 30% 30.00 in 10.0 mi NW 9.2 mph - N/A   Clear
10:35 AM 84.2 °F - 48.2 °F 29% 29.99 in 10.0 mi NW 8.1 mph - N/A   Clear
10:55 AM 86.0 °F - 48.2 °F 27% 30.00 in 10.0 mi NNW 8.1 mph - N/A   Clear
11:15 AM 86.0 °F - 48.2 °F 27% 29.99 in 10.0 mi NW 10.4 mph - N/A   Clear
11:35 AM 86.0 °F - 48.2 °F 27% 29.99 in 10.0 mi NW 12.7 mph - N/A   Clear
11:55 AM 89.6 °F - 48.2 °F 24% 29.98 in 10.0 mi WNW 11.5 mph 20.7 mph N/A   Clear
12:15 PM 89.6 °F - 50.0 °F 26% 29.98 in 10.0 mi NW 17.3 mph 23.0 mph N/A   Clear
12:35 PM 89.6 °F - 50.0 °F 26% 29.98 in 10.0 mi NW 16.1 mph 21.9 mph N/A   Clear
12:55 PM 89.6 °F - 50.0 °F 26% 29.98 in 10.0 mi NW 16.1 mph 21.9 mph N/A   Clear
1:15 PM 89.6 °F - 48.2 °F 24% 29.98 in 10.0 mi NW 16.1 mph 23.0 mph N/A   Clear
1:35 PM 89.6 °F - 50.0 °F 26% 29.97 in 10.0 mi NW 16.1 mph 23.0 mph N/A   Clear
1:55 PM 89.6 °F - 50.0 °F 26% 29.97 in 10.0 mi NW 18.4 mph 26.5 mph N/A   Clear
2:15 PM 91.4 °F - 50.0 °F 24% 29.97 in 10.0 mi NW 18.4 mph 25.3 mph N/A   Clear
2:35 PM 87.8 °F - 50.0 °F 27% 29.96 in 10.0 mi NW 16.1 mph 24.2 mph N/A   Clear
2:55 PM 89.6 °F - 50.0 °F 26% 29.96 in 10.0 mi NW 17.3 mph 23.0 mph N/A   Clear
3:15 PM 89.6 °F - 51.8 °F 27% 29.95 in 10.0 mi NW 17.3 mph 25.3 mph N/A   Clear
3:35 PM 89.6 °F 87.3 °F 53.6 °F 29% 29.96 in 10.0 mi NW 16.1 mph 24.2 mph N/A   Clear
3:55 PM 89.6 °F 87.3 °F 53.6 °F 29% 29.95 in 10.0 mi NW 17.3 mph 21.9 mph N/A   Clear
4:15 PM 87.8 °F 85.7 °F 53.6 °F 31% 29.95 in 10.0 mi NW 18.4 mph - N/A   Clear
4:35 PM 87.8 °F 85.7 °F 53.6 °F 31% 29.95 in 10.0 mi NW 16.1 mph 24.2 mph N/A   Clear
4:55 PM 86.0 °F 84.2 °F 53.6 °F 33% 29.95 in 10.0 mi NW 15.0 mph 21.9 mph N/A   Clear
5:15 PM 86.0 °F 84.2 °F 53.6 °F 33% 29.95 in 10.0 mi NW 17.3 mph 23.0 mph N/A   Clear
5:35 PM 86.0 °F 84.2 °F 53.6 °F 33% 29.96 in 10.0 mi NW 17.3 mph - N/A   Clear
5:55 PM 84.2 °F 82.8 °F 53.6 °F 35% 29.95 in 10.0 mi NW 15.0 mph 21.9 mph N/A   Clear
6:15 PM 84.2 °F 82.8 °F 53.6 °F 35% 29.96 in 10.0 mi WNW 18.4 mph - N/A   Clear
6:35 PM 82.4 °F 81.7 °F 55.4 °F 39% 29.96 in 10.0 mi NW 16.1 mph - N/A   Clear
6:55 PM 82.4 °F 81.7 °F 55.4 °F 39% 29.96 in 10.0 mi NW 13.8 mph 19.6 mph N/A   Clear
7:15 PM 80.6 °F 80.5 °F 55.4 °F 42% 29.96 in 10.0 mi WNW 12.7 mph - N/A   Clear
7:35 PM 78.8 °F - 55.4 °F 44% 29.96 in 10.0 mi WNW 11.5 mph - N/A   Clear
7:55 PM 77.0 °F - 55.4 °F 47% 29.97 in 10.0 mi West 10.4 mph - N/A   Clear
8:15 PM 77.0 °F - 55.4 °F 47% 29.97 in 10.0 mi West 9.2 mph - N/A   Clear
8:35 PM 75.2 °F - 55.4 °F 50% 29.97 in 10.0 mi West 8.1 mph - N/A   Clear
8:55 PM 73.4 °F - 55.4 °F 53% 29.97 in 10.0 mi WNW 5.8 mph - N/A   Clear
9:15 PM 73.4 °F - 55.4 °F 53% 29.98 in 10.0 mi West 5.8 mph - N/A   Clear
9:35 PM 71.6 °F - 55.4 °F 57% 29.98 in 10.0 mi WNW 5.8 mph - N/A   Clear
9:55 PM 69.8 °F - 53.6 °F 56% 29.98 in 10.0 mi WNW 3.5 mph - N/A   Clear
10:15 PM 69.8 °F - 55.4 °F 60% 29.98 in 10.0 mi Calm Calm - N/A   Clear
10:35 PM 71.6 °F - 55.4 °F 57% 29.98 in 10.0 mi West 5.8 mph - N/A   Clear
10:55 PM 69.8 °F - 55.4 °F 60% 29.98 in 10.0 mi WNW 4.6 mph - N/A   Clear
11:15 PM 68.0 °F - 55.4 °F 64% 29.98 in 10.0 mi NW 3.5 mph - N/A   Clear
11:35 PM 68.0 °F - 53.6 °F 60% 29.98 in 10.0 mi West 4.6 mph - N/A   Clear
11:55 PM 68.0 °F - 53.6 °F 60% 29.98 in 10.0 mi WNW 4.6 mph - N/A   Clear